Regional Weather Roundup
Issued by NWS Newport/Morehead, NC

Current Version | Previous Version | Graphics & Text | Print | Product List | Glossary Off
Versions: 1 2 3 4 5 6 7 8 9 10 11 12 13 14 15 16 17 18 19 20 21 22 23 24 25 26 27 28 29 30 31 32 33 34 35 36 37 38 39 40 41 42 43 44 45 46 47 48 49 50

000
ASUS42 KMHX 062213
RWRMHX
WEATHER ROUNDUP FOR EASTERN NORTH CAROLINA
NATIONAL WEATHER SERVICE NEWPORT/MOREHEAD CITY NC
500 PM EST TUE DEC 06 2016

NOTE: "FAIR" INDICATES FEW OR NO CLOUDS BELOW 12,000 FEET
WITH NO SIGNIFICANT WEATHER AND/OR OBSTRUCTIONS TO VISIBILITY

NCZ015>017-031-032-045>047-102-103-062300-
NORTH COAST

CITY           SKY/WX    TMP DP  RH WIND       PRES   REMARKS
EDENTON        CLOUDY    61  60  95 CALM      29.60S FOG
ELIZABETH CITY FOG       59  59 100 SE8       29.60F VSB 1
KITTY HAWK     CLOUDY    62  62 100 SE8       29.57F FOG
MANTEO         MOCLDY    63  63  99 SE15G23   29.59F

$$

NCZ045>047-081-094-103-104-062300-
CENTRAL COAST

CITY           SKY/WX    TMP DP  RH WIND       PRES   REMARKS
FRISCO         MOCLDY    65  63  93 E16G24    29.60S FOG

$$

NCZ095-097-098-100-101-062300-
SOUTHERN COAST

CITY           SKY/WX    TMP DP  RH WIND       PRES   REMARKS
BEAUFORT       LGT RAIN  66  65  96 SW14      29.62R FOG
CEDAR ISLAND   NOT AVBL
JACKSONVILLE   CLOUDY    66  66 100 SW5       29.63R
PINEY ISLAND   MOCLDY   N/A N/A N/A S8        29.60S
WILMINGTON     CLOUDY    66  66 100 W14       29.66R


$$

NCZ011>013-027>030-043-044-078>080-089-090>093-098-062300-
COASTAL PLAIN

CITY           SKY/WX    TMP DP  RH WIND       PRES   REMARKS
AHOSKIE        HVY RAIN  53  53  99 CALM      29.62S
CLINTON        DRIZZLE   53  53 100 W6        29.69R
ELIZABETHTOWN  DRIZZLE   54  54 100 NW9       29.70R
GOLDSBORO      NOT AVBL
GREENVILLE     LGT RAIN  57  55  94 CALM      29.65F
HAVELOCK       CLOUDY    68  65  90 SW10      29.62S
KENANSVILLE    FOG       54  54 100 SW3       29.65S VSB 1/4
KINSTON        LGT RAIN  55  55 100 CALM      29.63F
NEW BERN       CLOUDY    67  64  90 SW3       29.63R
RICHLANDS      CLOUDY    59  58  96 W5        29.65R FOG
ROCKY MOUNT    LGT RAIN  48  48 100 NW14      29.68R FOG
WASHINGTON     DRIZZLE   61  60  97 SE3       29.62S
WHITEVILLE     LGT RAIN  59  58  97 W6        29.69R

$$

AMZ130-135-150-152-154-156-158-170-250-252-270-ANZ085-086-088-633-658-670-062300-
MARINE OBSERVATIONS

STATION/POSITION TIME  TEMP    WIND        PRES    WAVE   SWELL
                       AIR SEA DIR/SP/G            HT/PER HT/PER
                 (UTC) (F)     (DEG/KT/KT) (MB)    (FT/S) (FT/S)
CHESAPEAKE LIGHT NOT AVBL
64 E VA BEACH    2150   64 60  110/ 25/ 31 1002.5   10/ 7   2/27
DUCK             2148   59 54  110/ 12/ 14 1001.3
2 E DUCK         NOT AVBL
OREGON INLET     2148          120/ 15/ 20 1001.2
13E OREGON INLT  NOT AVBL
HATTERAS CG      2148   66 60  100/ 12/ 20 1002.0
DIAMOND BUOY     2150   74 76  120/ 12/ 16 1002.1   11/ 8  11/ 8
CAPE LOOKOUT     2100   66     210/  7/ 10 1002.4
BEAUFORT LAB     2148   65 56  210/  8/ 11 1001.9
30 SE NEW RVR IN 2108   63 71  260/ 14/ 19 1003.3
30 SE NEW RVR IN NOT AVBL
27 SE WRIGHTSVLE 2108   68 69  240/ 12/ 17 1003.3
5 SE WRIGHTSVLE  2108   61 62  240/ 12/ 16 1003.6
225 S CAPE HAT   2150   75 74  200/ 23/ 27 1009.1    8/ 7   2/11
41 SE CHARLESTON 2150   74 74  240/ 21/ 23 1005.3    8/ 8   2/15

$$




USA.gov is the U.S. government's official web portal to all federal, state and local government web resources and services.